Menu Close Menu
Station Historical Data
Daily Summary for September 23, 2017 Units:  Metric    English   Both
« Previous Day
Next Day »
Daily Weekly Monthly Yearly Custom
  High: Low: Average:
Temperature: 30.8 °C 18.8 °C 23.7 °C
Dew Point: 21.3 °C 17.3 °C 18.6 °C
Humidity: 93% 47% 75%
Wind Speed: 14.5km/h 1.6km/h 5.6km/h
Wind Gust: 14.5km/h - -
Wind- - ENE
Pressure: 1018.2 hPa 1015.5 hPa -
Precipitation: 0 mm    
Historical Graphs
 
 
Tabular Data for September 23, 2017
Time Temperature Dew Point Pressure Wind Wind Speed Wind Gust Humidity Rainfall Rate (Hourly) solar Conditions
00:00 21.4 °C 19 °C 1016.8 hPa ENE 1.6 km/h 1.6 km/h 86% 0 mm WeatherDisplay:10.37 W/m2 FEW
00:05 21.3 °C 18.9 °C 1016.8 hPa ENE 1.6 km/h 1.6 km/h 86% 0 mm WeatherDisplay:10.37 W/m2 FEW
00:10 21.3 °C 18.8 °C 1016.8 hPa ENE 1.6 km/h 1.6 km/h 86% 0 mm WeatherDisplay:10.37 W/m2 FEW
00:15 21.2 °C 18.8 °C 1016.8 hPa ENE 1.6 km/h 1.6 km/h 86% 0 mm WeatherDisplay:10.37 W/m2 FEW
00:20 21.2 °C 18.7 °C 1016.8 hPa ENE 1.6 km/h 1.6 km/h 86% 0 mm WeatherDisplay:10.37 W/m2 FEW
00:25 21.1 °C 18.9 °C 1016.8 hPa ENE 1.6 km/h 1.6 km/h 87% 0 mm WeatherDisplay:10.37 W/m2 FEW
00:30 21.1 °C 18.8 °C 1016.8 hPa ENE 1.6 km/h 1.6 km/h 87% 0 mm WeatherDisplay:10.37 W/m2 FEW
00:40 20.9 °C 18.7 °C 1016.8 hPa ENE 1.6 km/h 1.6 km/h 87% 0 mm WeatherDisplay:10.37 W/m2 FEW
00:45 20.9 °C 18.7 °C 1016.8 hPa ENE 1.6 km/h 1.6 km/h 87% 0 mm WeatherDisplay:10.37 W/m2 FEW
00:50 20.8 °C 18.6 °C 1016.8 hPa ENE 1.6 km/h 1.6 km/h 87% 0 mm WeatherDisplay:10.37 W/m2 FEW
00:55 20.8 °C 18.8 °C 1016.8 hPa ENE 1.6 km/h 1.6 km/h 88% 0 mm WeatherDisplay:10.37 W/m2 FEW
01:00 20.8 °C 18.8 °C 1016.8 hPa ENE 1.6 km/h 1.6 km/h 88% 0 mm WeatherDisplay:10.37 W/m2 FEW
01:05 20.9 °C 18.8 °C 1016.8 hPa ENE 1.6 km/h 1.6 km/h 88% 0 mm WeatherDisplay:10.37 W/m2 FEW
01:10 20.8 °C 18.8 °C 1016.5 hPa ENE 1.6 km/h 1.6 km/h 88% 0 mm WeatherDisplay:10.37 W/m2 FEW
01:15 20.8 °C 18.7 °C 1016.8 hPa ENE 1.6 km/h 1.6 km/h 88% 0 mm WeatherDisplay:10.37 W/m2 FEW
01:20 20.7 °C 18.7 °C 1016.8 hPa ENE 1.6 km/h 1.6 km/h 88% 0 mm WeatherDisplay:10.37 W/m2 FEW
01:25 20.7 °C 18.6 °C 1016.5 hPa ENE 1.6 km/h 1.6 km/h 88% 0 mm WeatherDisplay:10.37 W/m2 FEW
01:30 20.6 °C 18.6 °C 1016.5 hPa ENE 1.6 km/h 1.6 km/h 88% 0 mm WeatherDisplay:10.37 W/m2 FEW
01:40 20.6 °C 18.7 °C 1016.5 hPa ENE 1.6 km/h 1.6 km/h 89% 0 mm WeatherDisplay:10.37 W/m2 FEW
01:45 20.6 °C 18.7 °C 1016.5 hPa ENE 1.6 km/h 1.6 km/h 89% 0 mm WeatherDisplay:10.37 W/m2 FEW
01:50 20.5 °C 18.4 °C 1016.5 hPa ENE 1.6 km/h 1.6 km/h 88% 0 mm WeatherDisplay:10.37 W/m2 FEW
01:55 20.4 °C 18.6 °C 1016.5 hPa ENE 1.6 km/h 1.6 km/h 89% 0 mm WeatherDisplay:10.37 W/m2 FEW
02:00 20.4 °C 18.5 °C 1016.5 hPa ENE 1.6 km/h 1.6 km/h 89% 0 mm WeatherDisplay:10.37 W/m2 FEW
02:05 20.3 °C 18.4 °C 1016.5 hPa ENE 1.6 km/h 1.6 km/h 89% 0 mm WeatherDisplay:10.37 W/m2 FEW
02:10 20.3 °C 18.4 °C 1016.5 hPa ENE 1.6 km/h 1.6 km/h 89% 0 mm WeatherDisplay:10.37 W/m2 FEW
02:15 20.3 °C 18.4 °C 1016.5 hPa ENE 1.6 km/h 1.6 km/h 89% 0 mm WeatherDisplay:10.37 W/m2 FEW
02:20 20.3 °C 18.4 °C 1016.5 hPa ENE 1.6 km/h 1.6 km/h 89% 0 mm WeatherDisplay:10.37 W/m2 FEW
02:25 20.3 °C 18.6 °C 1016.5 hPa ENE 1.6 km/h 1.6 km/h 90% 0 mm WeatherDisplay:10.37 W/m2 FEW
02:30 20.2 °C 18.6 °C 1016.8 hPa ENE 1.6 km/h 1.6 km/h 90% 0 mm WeatherDisplay:10.37 W/m2 FEW
02:35 20.2 °C 18.5 °C 1016.8 hPa ENE 1.6 km/h 1.6 km/h 90% 0 mm WeatherDisplay:10.37 W/m2 FEW
02:40 20.1 °C 18.4 °C 1016.8 hPa ENE 1.6 km/h 1.6 km/h 90% 0 mm WeatherDisplay:10.37 W/m2 FEW
02:50 20.1 °C 18.4 °C 1016.5 hPa ENE 1.6 km/h 1.6 km/h 90% 0 mm WeatherDisplay:10.37 W/m2 FEW
02:55 20 °C 18.3 °C 1016.8 hPa ENE 1.6 km/h 1.6 km/h 90% 0 mm WeatherDisplay:10.37 W/m2 FEW
03:00 20 °C 18.3 °C 1016.5 hPa ENE 1.6 km/h 1.6 km/h 90% 0 mm WeatherDisplay:10.37 W/m2 FEW
03:05 19.9 °C 18.3 °C 1016.5 hPa ENE 1.6 km/h 1.6 km/h 90% 0 mm WeatherDisplay:10.37 W/m2 FEW
03:10 19.9 °C 18.2 °C 1016.5 hPa ENE 1.6 km/h 1.6 km/h 90% 0 mm WeatherDisplay:10.37 W/m2 FEW
03:15 19.8 °C 18.1 °C 1016.5 hPa ENE 1.6 km/h 1.6 km/h 90% 0 mm WeatherDisplay:10.37 W/m2 FEW
03:20 19.7 °C 18.1 °C 1016.5 hPa ENE 1.6 km/h 1.6 km/h 90% 0 mm WeatherDisplay:10.37 W/m2 FEW
03:25 19.7 °C 18.1 °C 1016.5 hPa ENE 1.6 km/h 1.6 km/h 90% 0 mm WeatherDisplay:10.37 W/m2 FEW
03:30 19.7 °C 18.2 °C 1016.5 hPa ENE 1.6 km/h 1.6 km/h 91% 0 mm WeatherDisplay:10.37 W/m2 FEW
03:40 19.7 °C 18.2 °C 1016.5 hPa ENE 1.6 km/h 1.6 km/h 91% 0 mm WeatherDisplay:10.37 W/m2 FEW
03:45 19.7 °C 18.2 °C 1016.5 hPa ENE 1.6 km/h 1.6 km/h 91% 0 mm WeatherDisplay:10.37 W/m2 FEW
03:50 19.7 °C 18.2 °C 1016.5 hPa ENE 1.6 km/h 1.6 km/h 91% 0 mm WeatherDisplay:10.37 W/m2 FEW
03:55 19.6 °C 18.1 °C 1016.5 hPa ENE 1.6 km/h 1.6 km/h 91% 0 mm WeatherDisplay:10.37 W/m2 FEW
04:05 19.5 °C 18 °C 1016.5 hPa ENE 1.6 km/h 1.6 km/h 91% 0 mm WeatherDisplay:10.37 W/m2 FEW
04:10 19.5 °C 18 °C 1016.5 hPa ENE 1.6 km/h 1.6 km/h 91% 0 mm WeatherDisplay:10.37 W/m2 FEW
04:15 19.6 °C 18.1 °C 1016.5 hPa ENE 1.6 km/h 1.6 km/h 91% 0 mm WeatherDisplay:10.37 W/m2 FEW
04:20 19.5 °C 18 °C 1016.1 hPa ENE 1.6 km/h 1.6 km/h 91% 0 mm WeatherDisplay:10.37 W/m2 FEW
04:25 19.4 °C 17.9 °C 1016.1 hPa ENE 1.6 km/h 1.6 km/h 91% 0 mm WeatherDisplay:10.37 W/m2 FEW
04:30 19.4 °C 17.9 °C 1016.1 hPa ENE 1.6 km/h 1.6 km/h 91% 0 mm WeatherDisplay:10.37 W/m2 FEW
04:35 19.5 °C 18.2 °C 1016.1 hPa ENE 1.6 km/h 1.6 km/h 92% 0 mm WeatherDisplay:10.37 W/m2 FEW
04:40 19.5 °C 18.2 °C 1016.1 hPa ENE 1.6 km/h 1.6 km/h 92% 0 mm WeatherDisplay:10.37 W/m2 FEW
04:45 19.5 °C 18.2 °C 1016.5 hPa ENE 1.6 km/h 1.6 km/h 92% 0 mm WeatherDisplay:10.37 W/m2 FEW
04:50 19.5 °C 18.2 °C 1016.5 hPa ENE 1.6 km/h 1.6 km/h 92% 0 mm WeatherDisplay:10.37 W/m2 FEW
04:55 19.4 °C 17.9 °C 1016.1 hPa ENE 1.6 km/h 1.6 km/h 91% 0 mm WeatherDisplay:10.37 W/m2 FEW
05:00 19.4 °C 17.9 °C 1016.1 hPa ENE 1.6 km/h 1.6 km/h 91% 0 mm WeatherDisplay:10.37 W/m2 FEW
05:05 19.4 °C 17.9 °C 1016.1 hPa ENE 1.6 km/h 1.6 km/h 91% 0 mm WeatherDisplay:10.37 W/m2 FEW
05:10 19.3 °C 17.8 °C 1016.5 hPa ENE 1.6 km/h 1.6 km/h 91% 0 mm WeatherDisplay:10.37 W/m2 FEW
05:15 19.3 °C 17.8 °C 1016.5 hPa ENE 1.6 km/h 1.6 km/h 91% 0 mm WeatherDisplay:10.37 W/m2 FEW
05:20 19.3 °C 17.8 °C 1016.5 hPa ENE 1.6 km/h 1.6 km/h 91% 0 mm WeatherDisplay:10.37 W/m2 FEW
05:25 19.2 °C 17.7 °C 1016.5 hPa ENE 1.6 km/h 1.6 km/h 91% 0 mm WeatherDisplay:10.37 W/m2 FEW
05:30 19.2 °C 17.7 °C 1016.5 hPa ENE 1.6 km/h 1.6 km/h 91% 0 mm WeatherDisplay:10.37 W/m2 FEW
05:35 19.1 °C 17.6 °C 1016.5 hPa ENE 1.6 km/h 1.6 km/h 91% 0 mm WeatherDisplay:10.37 W/m2 FEW
05:40 19.1 °C 17.8 °C 1016.5 hPa ENE 1.6 km/h 1.6 km/h 92% 0 mm WeatherDisplay:10.37 W/m2 FEW
05:45 19.1 °C 17.8 °C 1016.8 hPa ENE 1.6 km/h 1.6 km/h 92% 0 mm WeatherDisplay:10.37 W/m2 FEW
05:50 19.1 °C 17.8 °C 1016.8 hPa ENE 1.6 km/h 1.6 km/h 92% 0 mm WeatherDisplay:10.37 W/m2 FEW
05:55 19.1 °C 17.7 °C 1016.8 hPa ENE 1.6 km/h 1.6 km/h 92% 0 mm WeatherDisplay:10.37 W/m2 FEW
06:00 19 °C 17.7 °C 1016.8 hPa ENE 1.6 km/h 1.6 km/h 92% 0 mm WeatherDisplay:10.37 W/m2 FEW
06:05 19 °C 17.7 °C 1016.8 hPa ENE 1.6 km/h 1.6 km/h 92% 0 mm WeatherDisplay:10.37 W/m2 FEW
06:10 19 °C 17.7 °C 1016.8 hPa ENE 1.6 km/h 1.6 km/h 92% 0 mm WeatherDisplay:10.37 W/m2 FEW
06:15 19 °C 17.7 °C 1016.8 hPa ENE 1.6 km/h 1.6 km/h 92% 0 mm WeatherDisplay:10.37 W/m2 FEW
06:20 19 °C 17.7 °C 1016.8 hPa ENE 1.6 km/h 1.6 km/h 92% 0 mm WeatherDisplay:10.37 W/m2 FEW
06:25 18.9 °C 17.6 °C 1016.8 hPa ENE 1.6 km/h 1.6 km/h 92% 0 mm WeatherDisplay:10.37 W/m2 FEW
06:30 18.9 °C 17.6 °C 1017.2 hPa ENE 1.6 km/h 1.6 km/h 92% 0 mm WeatherDisplay:10.37 W/m2 FEW
06:35 18.9 °C 17.6 °C 1017.2 hPa ENE 1.6 km/h 1.6 km/h 92% 0 mm WeatherDisplay:10.37 W/m2 FEW
06:40 18.9 °C 17.6 °C 1017.2 hPa ENE 1.6 km/h 1.6 km/h 92% 0 mm WeatherDisplay:10.37 W/m2 FEW
06:45 18.9 °C 17.6 °C 1017.2 hPa ENE 1.6 km/h 1.6 km/h 92% 0 mm WeatherDisplay:10.37 W/m2 FEW
06:50 18.9 °C 17.6 °C 1017.2 hPa ENE 1.6 km/h 1.6 km/h 92% 0 mm WeatherDisplay:10.37 W/m2 FEW
06:55 18.9 °C 17.6 °C 1017.2 hPa ENE 1.6 km/h 1.6 km/h 92% 0 mm WeatherDisplay:10.37 W/m2 FEW
07:00 18.9 °C 17.6 °C 1017.2 hPa ENE 1.6 km/h 1.6 km/h 92% 0 mm WeatherDisplay:10.37 W/m2 FEW
07:05 18.9 °C 17.6 °C 1017.5 hPa ENE 1.6 km/h 1.6 km/h 92% 0 mm WeatherDisplay:10.37 W/m2 FEW
07:10 18.9 °C 17.6 °C 1017.5 hPa ENE 1.6 km/h 1.6 km/h 92% 0 mm WeatherDisplay:10.37 W/m2 FEW
07:15 18.9 °C 17.6 °C 1017.5 hPa ENE 1.6 km/h 1.6 km/h 92% 0 mm WeatherDisplay:10.37 W/m2 FEW
07:20 18.8 °C 17.5 °C 1017.2 hPa ENE 1.6 km/h 1.6 km/h 92% 0 mm WeatherDisplay:10.37 W/m2 FEW
07:25 18.9 °C 17.6 °C 1017.2 hPa ENE 1.6 km/h 1.6 km/h 92% 0 mm WeatherDisplay:10.37 W/m2 FEW
07:30 18.9 °C 17.8 °C 1017.2 hPa ENE 1.6 km/h 1.6 km/h 93% 0 mm WeatherDisplay:10.37 W/m2 FEW
07:40 18.9 °C 17.6 °C 1017.5 hPa ENE 1.6 km/h 1.6 km/h 92% 0 mm WeatherDisplay:10.37 W/m2 FEW
07:45 18.9 °C 17.6 °C 1017.5 hPa ENE 1.6 km/h 1.6 km/h 92% 0 mm WeatherDisplay:10.37 W/m2 FEW
07:50 18.9 °C 17.6 °C 1017.2 hPa ENE 1.6 km/h 1.6 km/h 92% 0 mm WeatherDisplay:10.37 W/m2 FEW
07:55 18.9 °C 17.6 °C 1017.2 hPa ENE 1.6 km/h 1.6 km/h 92% 0 mm WeatherDisplay:10.37 W/m2 FEW
08:00 19 °C 17.8 °C 1017.5 hPa ENE 1.6 km/h 1.6 km/h 93% 0 mm WeatherDisplay:10.37 W/m2 FEW
08:10 19.1 °C 17.9 °C 1017.5 hPa ENE 1.6 km/h 1.6 km/h 93% 0 mm WeatherDisplay:10.37 W/m2 FEW
08:15 19.3 °C 18.1 °C 1017.5 hPa ENE 1.6 km/h 1.6 km/h 93% 0 mm WeatherDisplay:10.37 W/m2 FEW
08:20 19.3 °C 18.2 °C 1017.5 hPa ENE 1.6 km/h 1.6 km/h 93% 0 mm WeatherDisplay:10.37 W/m2 FEW
08:25 19.5 °C 18.3 °C 1017.5 hPa ENE 1.6 km/h 1.6 km/h 93% 0 mm WeatherDisplay:10.37 W/m2 FEW
08:30 19.6 °C 18.4 °C 1017.8 hPa ENE 1.6 km/h 1.6 km/h 93% 0 mm WeatherDisplay:10.37 W/m2 FEW
08:40 19.8 °C 18.6 °C 1017.8 hPa ENE 1.6 km/h 1.6 km/h 93% 0 mm WeatherDisplay:10.37 W/m2 FEW
08:45 19.9 °C 18.7 °C 1017.8 hPa ENE 1.6 km/h 1.6 km/h 93% 0 mm WeatherDisplay:10.37 W/m2 FEW
08:55 20.2 °C 19.1 °C 1017.8 hPa ENE 1.6 km/h 1.6 km/h 93% 0 mm WeatherDisplay:10.37 W/m2 FEW
09:00 20.4 °C 19.2 °C 1017.8 hPa ENE 1.6 km/h 1.6 km/h 93% 0 mm WeatherDisplay:10.37 W/m2 FEW
09:05 20.6 °C 19.4 °C 1017.8 hPa ENE 1.6 km/h 1.6 km/h 93% 0 mm WeatherDisplay:10.37 W/m2 FEW
09:10 20.8 °C 19.7 °C 1017.8 hPa ENE 1.6 km/h 1.6 km/h 93% 0 mm WeatherDisplay:10.37 W/m2 FEW
09:15 21.1 °C 19.8 °C 1017.8 hPa NE 1.6 km/h 1.6 km/h 92% 0 mm WeatherDisplay:10.37 W/m2 CLR
09:20 21.4 °C 19.9 °C 1017.8 hPa NNE 1.6 km/h 1.6 km/h 91% 0 mm WeatherDisplay:10.37 W/m2 CLR
09:25 21.8 °C 19.9 °C 1017.8 hPa NNE 1.6 km/h 1.6 km/h 89% 0 mm WeatherDisplay:10.37 W/m2 CLR
09:40 22.6 °C 19.9 °C 1017.8 hPa NNE 1.6 km/h 1.6 km/h 85% 0 mm WeatherDisplay:10.37 W/m2 CLR
09:45 22.9 °C 20.3 °C 1017.8 hPa NNE 1.6 km/h 1.6 km/h 85% 0 mm WeatherDisplay:10.37 W/m2 CLR
09:50 23.2 °C 20.2 °C 1017.8 hPa North 1.6 km/h 1.6 km/h 83% 0 mm WeatherDisplay:10.37 W/m2 CLR
09:55 23.6 °C 20.5 °C 1017.8 hPa NNW 1.6 km/h 1.6 km/h 83% 0 mm WeatherDisplay:10.37 W/m2 CLR
10:00 23.9 °C 20.4 °C 1017.8 hPa NNW 1.6 km/h 1.6 km/h 81% 0 mm WeatherDisplay:10.37 W/m2 CLR
10:05 24.2 °C 20.3 °C 1017.8 hPa NNW 1.6 km/h 1.6 km/h 79% 0 mm WeatherDisplay:10.37 W/m2 CLR
10:10 24.3 °C 20.4 °C 1018.2 hPa NW 1.6 km/h 1.6 km/h 79% 0 mm WeatherDisplay:10.37 W/m2 CLR
10:15 24.4 °C 20.1 °C 1018.2 hPa East 4.8 km/h 4.8 km/h 77% 0 mm WeatherDisplay:10.37 W/m2 FEW
10:20 24.6 °C 20.4 °C 1018.2 hPa East 4.8 km/h 4.8 km/h 78% 0 mm WeatherDisplay:10.37 W/m2 FEW
10:25 24.6 °C 20.3 °C 1018.2 hPa East 4.8 km/h 4.8 km/h 77% 0 mm WeatherDisplay:10.37 W/m2 FEW
10:35 24.9 °C 20.8 °C 1018.2 hPa East 4.8 km/h 4.8 km/h 78% 0 mm WeatherDisplay:10.37 W/m2 FEW
10:40 25.5 °C 21.2 °C 1018.2 hPa East 4.8 km/h 4.8 km/h 77% 0 mm WeatherDisplay:10.37 W/m2 FEW
10:45 26 °C 21 °C 1018.2 hPa East 4.8 km/h 4.8 km/h 74% 0 mm WeatherDisplay:10.37 W/m2 FEW
10:50 26.3 °C 20.8 °C 1018.2 hPa East 4.8 km/h 4.8 km/h 72% 0 mm WeatherDisplay:10.37 W/m2 FEW
10:55 26.6 °C 20.9 °C 1018.2 hPa East 4.8 km/h 4.8 km/h 71% 0 mm WeatherDisplay:10.37 W/m2 FEW
11:00 27.1 °C 20.9 °C 1018.2 hPa East 4.8 km/h 4.8 km/h 69% 0 mm WeatherDisplay:10.37 W/m2 FEW
11:05 27.6 °C 21.3 °C 1018.2 hPa East 4.8 km/h 4.8 km/h 69% 0 mm WeatherDisplay:10.37 W/m2 FEW
11:15 28 °C 20.8 °C 1017.8 hPa East 4.8 km/h 4.8 km/h 65% 0 mm WeatherDisplay:10.37 W/m2 FEW
11:20 28.2 °C 20.9 °C 1017.8 hPa ENE 4.8 km/h 4.8 km/h 65% 0 mm WeatherDisplay:10.37 W/m2 FEW
11:30 28.7 °C 20.2 °C 1017.8 hPa ENE 4.8 km/h 4.8 km/h 60% 0 mm WeatherDisplay:10.37 W/m2 FEW
11:35 28.7 °C 20.4 °C 1017.8 hPa ENE 4.8 km/h 4.8 km/h 61% 0 mm WeatherDisplay:10.37 W/m2 FEW
11:40 29 °C 21.2 °C 1017.8 hPa ENE 4.8 km/h 4.8 km/h 63% 0 mm WeatherDisplay:10.37 W/m2 FEW
11:45 29.4 °C 20.6 °C 1017.8 hPa ENE 4.8 km/h 4.8 km/h 59% 0 mm WeatherDisplay:10.37 W/m2 FEW
11:50 29.8 °C 20.9 °C 1017.8 hPa ENE 4.8 km/h 4.8 km/h 59% 0 mm WeatherDisplay:10.37 W/m2 FEW
11:55 30.2 °C 20.7 °C 1017.8 hPa ENE 4.8 km/h 4.8 km/h 57% 0 mm WeatherDisplay:10.37 W/m2 FEW
12:00 30.4 °C 20.7 °C 1017.8 hPa ENE 4.8 km/h 4.8 km/h 56% 0 mm WeatherDisplay:10.37 W/m2 FEW
12:05 30.1 °C 20.3 °C 1017.8 hPa ENE 4.8 km/h 4.8 km/h 56% 0 mm WeatherDisplay:10.37 W/m2 FEW
12:10 29.7 °C 19.7 °C 1017.8 hPa ENE 4.8 km/h 4.8 km/h 55% 0 mm WeatherDisplay:10.37 W/m2 FEW
12:15 29.7 °C 20.2 °C 1017.8 hPa SE 4.8 km/h 4.8 km/h 57% 0 mm WeatherDisplay:10.37 W/m2 FEW
12:20 29.8 °C 18.9 °C 1017.8 hPa SSE 4.8 km/h 4.8 km/h 52% 0 mm WeatherDisplay:10.37 W/m2 FEW
12:25 30.1 °C 20 °C 1017.8 hPa SSE 4.8 km/h 4.8 km/h 55% 0 mm WeatherDisplay:10.37 W/m2 FEW
12:30 30.2 °C 19.2 °C 1017.8 hPa SSE 4.8 km/h 4.8 km/h 52% 0 mm WeatherDisplay:10.37 W/m2 FEW
12:40 30.3 °C 18.7 °C 1017.8 hPa SSE 4.8 km/h 4.8 km/h 50% 0 mm WeatherDisplay:10.37 W/m2 FEW
12:45 30.1 °C 18.9 °C 1017.8 hPa SSE 4.8 km/h 4.8 km/h 51% 0 mm WeatherDisplay:10.37 W/m2 FEW
12:50 29.7 °C 18.5 °C 1017.5 hPa SSE 4.8 km/h 4.8 km/h 51% 0 mm WeatherDisplay:10.37 W/m2 FEW
12:55 29.6 °C 18.7 °C 1017.5 hPa SSE 4.8 km/h 4.8 km/h 52% 0 mm WeatherDisplay:10.37 W/m2 FEW
13:00 29.2 °C 18.7 °C 1017.8 hPa SSE 4.8 km/h 4.8 km/h 53% 0 mm WeatherDisplay:10.37 W/m2 FEW
13:05 28.9 °C 18.9 °C 1017.5 hPa SSE 4.8 km/h 4.8 km/h 55% 0 mm WeatherDisplay:10.37 W/m2 FEW
13:10 28.6 °C 19 °C 1017.5 hPa SSE 4.8 km/h 4.8 km/h 56% 0 mm WeatherDisplay:10.37 W/m2 FEW
13:15 28.6 °C 18.6 °C 1017.5 hPa East 11.3 km/h 11.3 km/h 55% 0 mm WeatherDisplay:10.37 W/m2 BKN
13:20 28.4 °C 18.6 °C 1017.5 hPa ENE 11.3 km/h 11.3 km/h 55% 0 mm WeatherDisplay:10.37 W/m2 BKN
13:25 28.4 °C 19.4 °C 1017.5 hPa ENE 11.3 km/h 11.3 km/h 58% 0 mm WeatherDisplay:10.37 W/m2 BKN
13:30 28.6 °C 19.5 °C 1017.5 hPa ENE 11.3 km/h 11.3 km/h 58% 0 mm WeatherDisplay:10.37 W/m2 BKN
13:35 28.7 °C 19 °C 1017.2 hPa ENE 11.3 km/h 11.3 km/h 56% 0 mm WeatherDisplay:10.37 W/m2 BKN
13:40 28.8 °C 18.9 °C 1017.2 hPa ENE 11.3 km/h 11.3 km/h 55% 0 mm WeatherDisplay:10.37 W/m2 BKN
13:45 29.1 °C 19.4 °C 1017.2 hPa ENE 11.3 km/h 11.3 km/h 56% 0 mm WeatherDisplay:10.37 W/m2 BKN
13:50 29.6 °C 18.7 °C 1017.2 hPa ENE 11.3 km/h 11.3 km/h 52% 0 mm WeatherDisplay:10.37 W/m2 BKN
13:55 29.8 °C 18.3 °C 1017.2 hPa ENE 11.3 km/h 11.3 km/h 50% 0 mm WeatherDisplay:10.37 W/m2 BKN
14:00 29.8 °C 18.9 °C 1017.2 hPa ENE 11.3 km/h 11.3 km/h 52% 0 mm WeatherDisplay:10.37 W/m2 BKN
14:05 30.1 °C 18.2 °C 1017.2 hPa ENE 11.3 km/h 11.3 km/h 49% 0 mm WeatherDisplay:10.37 W/m2 BKN
14:10 30.3 °C 18.4 °C 1016.8 hPa ENE 11.3 km/h 11.3 km/h 49% 0 mm WeatherDisplay:10.37 W/m2 BKN
14:15 30.6 °C 19.3 °C 1016.8 hPa ENE 8 km/h 11.3 km/h 51% 0 mm WeatherDisplay:10.37 W/m2 BKN
14:20 30.8 °C 19.8 °C 1016.8 hPa East 8 km/h 8 km/h 52% 0 mm WeatherDisplay:10.37 W/m2 BKN
14:25 30.4 °C 18.1 °C 1016.8 hPa East 8 km/h 8 km/h 48% 0 mm WeatherDisplay:10.37 W/m2 BKN
14:30 30.3 °C 19.3 °C 1016.8 hPa East 8 km/h 8 km/h 52% 0 mm WeatherDisplay:10.37 W/m2 BKN
14:35 30.5 °C 18.9 °C 1016.8 hPa East 8 km/h 8 km/h 50% 0 mm WeatherDisplay:10.37 W/m2 BKN
14:40 30.4 °C 18.5 °C 1016.5 hPa East 8 km/h 8 km/h 49% 0 mm WeatherDisplay:10.37 W/m2 BKN
14:45 30.4 °C 17.8 °C 1016.5 hPa East 8 km/h 8 km/h 47% 0 mm WeatherDisplay:10.37 W/m2 BKN
14:50 30.5 °C 18.3 °C 1016.5 hPa East 8 km/h 8 km/h 48% 0 mm WeatherDisplay:10.37 W/m2 BKN
14:55 30.6 °C 18.3 °C 1016.5 hPa East 8 km/h 8 km/h 48% 0 mm WeatherDisplay:10.37 W/m2 BKN
15:00 30.6 °C 17.9 °C 1016.5 hPa East 8 km/h 8 km/h 47% 0 mm WeatherDisplay:10.37 W/m2 BKN
15:10 30.1 °C 18.2 °C 1016.5 hPa East 8 km/h 8 km/h 49% 0 mm WeatherDisplay:10.37 W/m2 BKN
15:15 30 °C 18.4 °C 1016.5 hPa East 9.7 km/h 9.7 km/h 50% 0 mm WeatherDisplay:10.37 W/m2 BKN
15:20 29.8 °C 17.7 °C 1016.5 hPa East 9.7 km/h 9.7 km/h 48% 0 mm WeatherDisplay:10.37 W/m2 BKN
15:25 29.7 °C 18.5 °C 1016.5 hPa East 9.7 km/h 9.7 km/h 51% 0 mm WeatherDisplay:10.37 W/m2 BKN
15:30 29.7 °C 18.5 °C 1016.1 hPa East 9.7 km/h 9.7 km/h 51% 0 mm WeatherDisplay:10.37 W/m2 BKN
15:40 29.4 °C 18.3 °C 1016.1 hPa East 9.7 km/h 9.7 km/h 51% 0 mm WeatherDisplay:10.37 W/m2 BKN
15:45 29.3 °C 18.8 °C 1015.8 hPa East 9.7 km/h 9.7 km/h 53% 0 mm WeatherDisplay:10.37 W/m2 BKN
15:50 29.3 °C 18.4 °C 1015.8 hPa East 9.7 km/h 9.7 km/h 52% 0 mm WeatherDisplay:10.37 W/m2 BKN
15:55 29.3 °C 18.8 °C 1015.8 hPa East 9.7 km/h 9.7 km/h 53% 0 mm WeatherDisplay:10.37 W/m2 BKN
16:00 29.2 °C 18.1 °C 1015.8 hPa East 9.7 km/h 9.7 km/h 51% 0 mm WeatherDisplay:10.37 W/m2 BKN
16:05 29.2 °C 18.6 °C 1015.8 hPa East 9.7 km/h 9.7 km/h 53% 0 mm WeatherDisplay:10.37 W/m2 BKN
16:10 29.2 °C 18 °C 1015.8 hPa East 9.7 km/h 9.7 km/h 51% 0 mm WeatherDisplay:10.37 W/m2 BKN
16:15 29.2 °C 18 °C 1015.8 hPa East 12.9 km/h 12.9 km/h 51% 0 mm WeatherDisplay:10.37 W/m2 FEW
16:20 29.1 °C 18.2 °C 1015.8 hPa ENE 12.9 km/h 12.9 km/h 52% 0 mm WeatherDisplay:10.37 W/m2 FEW
16:25 29.1 °C 18.2 °C 1015.5 hPa ENE 12.9 km/h 12.9 km/h 52% 0 mm WeatherDisplay:10.37 W/m2 FEW
16:30 29.2 °C 18 °C 1015.5 hPa ENE 12.9 km/h 12.9 km/h 51% 0 mm WeatherDisplay:10.37 W/m2 FEW
16:35 29.3 °C 18.1 °C 1015.5 hPa ENE 12.9 km/h 12.9 km/h 51% 0 mm WeatherDisplay:10.37 W/m2 FEW
16:40 29.4 °C 18.5 °C 1015.5 hPa ENE 12.9 km/h 12.9 km/h 52% 0 mm WeatherDisplay:10.37 W/m2 FEW
16:45 29.3 °C 17.8 °C 1015.5 hPa ENE 12.9 km/h 12.9 km/h 50% 0 mm WeatherDisplay:10.37 W/m2 FEW
16:50 29.4 °C 18.2 °C 1015.5 hPa ENE 12.9 km/h 12.9 km/h 51% 0 mm WeatherDisplay:10.37 W/m2 FEW
16:55 29.3 °C 18.4 °C 1015.5 hPa ENE 12.9 km/h 12.9 km/h 52% 0 mm WeatherDisplay:10.37 W/m2 FEW
17:00 29.2 °C 17.4 °C 1015.5 hPa ENE 12.9 km/h 12.9 km/h 49% 0 mm WeatherDisplay:10.37 W/m2 FEW
17:10 29.1 °C 17.3 °C 1015.5 hPa ENE 12.9 km/h 12.9 km/h 49% 0 mm WeatherDisplay:10.37 W/m2 FEW
17:15 29 °C 18.2 °C 1015.5 hPa ENE 12.9 km/h 12.9 km/h 52% 0 mm WeatherDisplay:10.37 W/m2 FEW
17:20 28.9 °C 18 °C 1015.5 hPa ENE 12.9 km/h 12.9 km/h 52% 0 mm WeatherDisplay:10.37 W/m2 FEW
17:25 28.7 °C 18.2 °C 1015.5 hPa ENE 12.9 km/h 12.9 km/h 53% 0 mm WeatherDisplay:10.37 W/m2 FEW
17:30 28.6 °C 17.4 °C 1015.5 hPa ENE 12.9 km/h 12.9 km/h 51% 0 mm WeatherDisplay:10.37 W/m2 FEW
17:35 28.4 °C 18.2 °C 1015.5 hPa ENE 12.9 km/h 12.9 km/h 54% 0 mm WeatherDisplay:10.37 W/m2 FEW
17:40 28.2 °C 17.8 °C 1015.5 hPa ENE 12.9 km/h 12.9 km/h 53% 0 mm WeatherDisplay:10.37 W/m2 FEW
17:45 28 °C 18.1 °C 1015.5 hPa ENE 12.9 km/h 12.9 km/h 55% 0 mm WeatherDisplay:10.37 W/m2 FEW
17:50 27.7 °C 17.8 °C 1015.5 hPa ENE 12.9 km/h 12.9 km/h 55% 0 mm WeatherDisplay:10.37 W/m2 FEW
17:55 27.5 °C 17.9 °C 1015.5 hPa ENE 12.9 km/h 12.9 km/h 56% 0 mm WeatherDisplay:10.37 W/m2 FEW
18:00 27.4 °C 17.8 °C 1015.8 hPa ENE 12.9 km/h 12.9 km/h 56% 0 mm WeatherDisplay:10.37 W/m2 FEW
18:10 26.9 °C 18 °C 1015.8 hPa ENE 12.9 km/h 12.9 km/h 58% 0 mm WeatherDisplay:10.37 W/m2 FEW
18:15 26.7 °C 17.4 °C 1015.8 hPa ENE 12.9 km/h 12.9 km/h 57% 0 mm WeatherDisplay:10.37 W/m2 FEW
18:20 26.8 °C 18.1 °C 1015.8 hPa ENE 12.9 km/h 12.9 km/h 59% 0 mm WeatherDisplay:10.37 W/m2 FEW
18:25 26.8 °C 18.4 °C 1015.8 hPa ENE 12.9 km/h 12.9 km/h 60% 0 mm WeatherDisplay:10.37 W/m2 FEW
18:30 26.7 °C 18.6 °C 1015.8 hPa ENE 12.9 km/h 12.9 km/h 61% 0 mm WeatherDisplay:10.37 W/m2 FEW
18:35 26.6 °C 18.7 °C 1015.8 hPa ENE 12.9 km/h 12.9 km/h 62% 0 mm WeatherDisplay:10.37 W/m2 FEW
18:40 26.4 °C 19.1 °C 1015.8 hPa ENE 12.9 km/h 12.9 km/h 64% 0 mm WeatherDisplay:10.37 W/m2 FEW
18:45 26.3 °C 18.9 °C 1015.8 hPa ENE 12.9 km/h 12.9 km/h 64% 0 mm WeatherDisplay:10.37 W/m2 FEW
18:50 26.1 °C 19 °C 1015.8 hPa ENE 12.9 km/h 12.9 km/h 65% 0 mm WeatherDisplay:10.37 W/m2 FEW
18:55 25.9 °C 18.8 °C 1015.8 hPa ENE 12.9 km/h 12.9 km/h 65% 0 mm WeatherDisplay:10.37 W/m2 FEW
19:00 25.7 °C 18.9 °C 1015.8 hPa ENE 12.9 km/h 12.9 km/h 66% 0 mm WeatherDisplay:10.37 W/m2 FEW
19:05 25.6 °C 18.7 °C 1015.8 hPa ENE 12.9 km/h 12.9 km/h 66% 0 mm WeatherDisplay:10.37 W/m2 FEW
19:10 25.3 °C 18.8 °C 1015.8 hPa ENE 12.9 km/h 12.9 km/h 67% 0 mm WeatherDisplay:10.37 W/m2 FEW
19:15 25.2 °C 18.6 °C 1015.8 hPa East 14.5 km/h 14.5 km/h 67% 0 mm WeatherDisplay:10.37 W/m2 FEW
19:20 24.9 °C 18.7 °C 1015.8 hPa East 14.5 km/h 14.5 km/h 68% 0 mm WeatherDisplay:10.37 W/m2 FEW
19:25 24.8 °C 18.7 °C 1015.8 hPa East 14.5 km/h 14.5 km/h 69% 0 mm WeatherDisplay:10.37 W/m2 FEW
19:30 24.6 °C 18.6 °C 1015.8 hPa East 14.5 km/h 14.5 km/h 69% 0 mm WeatherDisplay:10.37 W/m2 FEW
19:40 24.4 °C 18.6 °C 1016.1 hPa East 14.5 km/h 14.5 km/h 70% 0 mm WeatherDisplay:10.37 W/m2 FEW
19:50 24.1 °C 18.4 °C 1016.1 hPa East 14.5 km/h 14.5 km/h 71% 0 mm WeatherDisplay:10.37 W/m2 FEW
19:55 23.9 °C 18.3 °C 1016.1 hPa East 14.5 km/h 14.5 km/h 71% 0 mm WeatherDisplay:10.37 W/m2 FEW
20:00 23.7 °C 18.4 °C 1016.1 hPa East 14.5 km/h 14.5 km/h 72% 0 mm WeatherDisplay:10.37 W/m2 FEW
20:10 23.4 °C 18.6 °C 1016.5 hPa East 14.5 km/h 14.5 km/h 74% 0 mm WeatherDisplay:10.37 W/m2 FEW
20:15 23.3 °C 18.6 °C 1016.5 hPa ENE 4.8 km/h 14.5 km/h 75% 0 mm WeatherDisplay:10.37 W/m2 FEW
20:20 23.1 °C 18.4 °C 1016.5 hPa North 4.8 km/h 4.8 km/h 75% 0 mm WeatherDisplay:10.37 W/m2 FEW
20:25 23.1 °C 18.4 °C 1016.5 hPa North 4.8 km/h 4.8 km/h 75% 0 mm WeatherDisplay:10.37 W/m2 FEW
20:30 23 °C 18.6 °C 1016.5 hPa North 4.8 km/h 4.8 km/h 76% 0 mm WeatherDisplay:10.37 W/m2 FEW
20:35 22.9 °C 18.7 °C 1016.5 hPa North 4.8 km/h 4.8 km/h 77% 0 mm WeatherDisplay:10.37 W/m2 FEW
20:40 22.8 °C 18.6 °C 1016.5 hPa North 4.8 km/h 4.8 km/h 77% 0 mm WeatherDisplay:10.37 W/m2 FEW
20:45 22.7 °C 18.5 °C 1016.5 hPa North 4.8 km/h 4.8 km/h 77% 0 mm WeatherDisplay:10.37 W/m2 FEW
20:50 22.6 °C 18.6 °C 1016.5 hPa North 4.8 km/h 4.8 km/h 78% 0 mm WeatherDisplay:10.37 W/m2 FEW
20:55 22.6 °C 18.5 °C 1016.5 hPa North 4.8 km/h 4.8 km/h 78% 0 mm WeatherDisplay:10.37 W/m2 FEW
21:00 22.4 °C 18.6 °C 1016.5 hPa North 4.8 km/h 4.8 km/h 79% 0 mm WeatherDisplay:10.37 W/m2 FEW
21:10 22.2 °C 18.6 °C 1016.5 hPa North 4.8 km/h 4.8 km/h 80% 0 mm WeatherDisplay:10.37 W/m2 FEW
21:20 21.9 °C 18.6 °C 1016.5 hPa NNE 4.8 km/h 4.8 km/h 81% 0 mm WeatherDisplay:10.37 W/m2 FEW
21:25 21.8 °C 18.4 °C 1016.5 hPa NNE 4.8 km/h 4.8 km/h 81% 0 mm WeatherDisplay:10.37 W/m2 FEW
21:30 21.7 °C 18.3 °C 1016.8 hPa NNE 4.8 km/h 4.8 km/h 81% 0 mm WeatherDisplay:10.37 W/m2 FEW
21:35 21.6 °C 18.2 °C 1016.8 hPa NNE 4.8 km/h 4.8 km/h 81% 0 mm WeatherDisplay:10.37 W/m2 FEW
21:40 21.6 °C 18.4 °C 1016.8 hPa NNE 4.8 km/h 4.8 km/h 82% 0 mm WeatherDisplay:10.37 W/m2 FEW
21:45 21.5 °C 18.3 °C 1016.8 hPa NNE 4.8 km/h 4.8 km/h 82% 0 mm WeatherDisplay:10.37 W/m2 FEW
21:50 21.4 °C 18.3 °C 1016.8 hPa NNE 4.8 km/h 4.8 km/h 82% 0 mm WeatherDisplay:10.37 W/m2 FEW
21:55 21.4 °C 18.2 °C 1016.8 hPa NNE 4.8 km/h 4.8 km/h 82% 0 mm WeatherDisplay:10.37 W/m2 FEW
22:00 21.4 °C 18.4 °C 1016.5 hPa NNE 4.8 km/h 4.8 km/h 83% 0 mm WeatherDisplay:10.37 W/m2 FEW
22:10 21.2 °C 18.4 °C 1016.8 hPa NNE 4.8 km/h 4.8 km/h 84% 0 mm WeatherDisplay:10.37 W/m2 FEW
22:15 21.2 °C 18.3 °C 1016.8 hPa NE 8 km/h 8 km/h 84% 0 mm WeatherDisplay:10.37 W/m2 FEW
22:20 21.1 °C 18.3 °C 1016.8 hPa NE 8 km/h 8 km/h 84% 0 mm WeatherDisplay:10.37 W/m2 FEW
22:25 21.1 °C 18.2 °C 1016.5 hPa NE 8 km/h 8 km/h 84% 0 mm WeatherDisplay:10.37 W/m2 FEW
22:30 21 °C 18.2 °C 1016.8 hPa NE 8 km/h 8 km/h 84% 0 mm WeatherDisplay:10.37 W/m2 FEW
22:40 20.9 °C 18.3 °C 1016.8 hPa NE 8 km/h 8 km/h 85% 0 mm WeatherDisplay:10.37 W/m2 FEW
22:45 20.9 °C 18.3 °C 1016.8 hPa NE 8 km/h 8 km/h 85% 0 mm WeatherDisplay:10.37 W/m2 FEW
22:50 20.9 °C 18.3 °C 1016.8 hPa NE 8 km/h 8 km/h 85% 0 mm WeatherDisplay:10.37 W/m2 FEW
22:55 20.8 °C 18.2 °C 1016.8 hPa NE 8 km/h 8 km/h 85% 0 mm WeatherDisplay:10.37 W/m2 FEW
23:00 20.8 °C 18.2 °C 1016.8 hPa NE 8 km/h 8 km/h 85% 0 mm WeatherDisplay:10.37 W/m2 FEW
23:05 20.8 °C 18.2 °C 1016.8 hPa NE 8 km/h 8 km/h 85% 0 mm WeatherDisplay:10.37 W/m2 FEW
23:10 20.7 °C 18.1 °C 1016.8 hPa NE 8 km/h 8 km/h 85% 0 mm WeatherDisplay:10.37 W/m2 FEW
23:20 20.7 °C 18.1 °C 1016.8 hPa NE 8 km/h 8 km/h 85% 0 mm WeatherDisplay:10.37 W/m2 FEW
23:25 20.7 °C 18.1 °C 1016.8 hPa NE 8 km/h 8 km/h 85% 0 mm WeatherDisplay:10.37 W/m2 FEW
23:40 20.6 °C 18.2 °C 1016.8 hPa NE 8 km/h 8 km/h 86% 0 mm WeatherDisplay:10.37 W/m2 FEW
23:45 20.6 °C 18.1 °C 1016.8 hPa NE 8 km/h 8 km/h 86% 0 mm WeatherDisplay:10.37 W/m2 FEW
23:50 20.4 °C 18 °C 1016.8 hPa NE 8 km/h 8 km/h 86% 0 mm WeatherDisplay:10.37 W/m2 FEW
23:55 20.4 °C 17.9 °C 1016.8 hPa NE 8 km/h 8 km/h 86% 0 mm WeatherDisplay:10.37 W/m2 FEW
Piedmont Bend
Compliments of Weather Underground - 4 mb